Stations météo

réclame
Mon MeteoGroup
Montpellier, France (7643): Température de l'air & dewpoint: 17.10.2018 07:00:00 - 23.10.2018 07:00:00 (CEST)Montpellier, France (7643): Température de l'air 5cm: 17.10.2018 07:00:00 - 23.10.2018 07:00:00 (CEST)Montpellier, France (7643): Température de l'air -20cm & Température de l'air -100cm: 17.10.2018 07:00:00 - 23.10.2018 07:00:00 (CEST)Montpellier, France (7643): Vitesse du vent & gusts: 17.10.2018 07:00:00 - 23.10.2018 07:00:00 (CEST)Montpellier, France (7643): Direction du vent: 17.10.2018 07:00:00 - 23.10.2018 07:00:00 (CEST)Montpellier, France (7643): reduced air pressure: 17.10.2018 07:00:00 - 23.10.2018 07:00:00 (CEST)Montpellier, France (7643): visibility: 17.10.2018 07:00:00 - 23.10.2018 07:00:00 (CEST)Montpellier, France (7643): Ensoleillement: 17.10.2018 07:00:00 - 23.10.2018 07:00:00 (CEST)Montpellier, France (7643): Quantités de précipitations: 17.10.2018 07:00:00 - 23.10.2018 07:00:00 (CEST)
Date & Time tt [°C] td [°C] tt 5cm [°C] tt -20cm [°C] tt -100cm [°C] ff [km/h] ff [knt] fx [km/h] fx [knt] dd ppp [hPa] vv [km] sd [min] rr [mm]
23.10.2018 07:00:00 10,9 3,2 6,9 16,0 20,1 12 6 17 9 NW 1025,5 18 0 0,0
23.10.2018 06:00:00 10,5 4,0 7,0 16,2 20,2 13 7 21 11 WNW 1025,5 22 0 0,0
23.10.2018 05:00:00 10,9 3,9 6,3 16,4 20,1 11 6 25 13 NW 1025,1 19 0 0,0
23.10.2018 04:00:00 10,9 4,8 7,6 16,5 20,1 10 5 19 11 WNW 1025,1 15 0 0,0
23.10.2018 03:00:00 11,8 5,2 8,1 16,8 20,2 11 6 24 13 NNW 1024,9 18 0 0,0
23.10.2018 02:00:00 11,6 6,9 6,2 17,0 20,2 11 6 15 8 WNW 1024,9 17 0 0,0
23.10.2018 01:00:00 12,7 6,5 7,2 17,2 20,2 10 5 14 7 WNW 1024,8 16 0 0,0
23.10.2018 00:00:00 12,6 5,7 6,5 17,4 20,2 10 5 22 12 NNW 1024,5 26 0 0,0
22.10.2018 23:00:00 12,5 5,9 8,7 17,6 20,2 13 7 21 12 N 1024,2 17 0 0,0
22.10.2018 22:00:00 14,5 5,3 7,5 17,9 20,2 6 3 11 6 WNW 1023,7 53 0 0,0
22.10.2018 21:00:00 15,0 5,8 9,5 18,2 20,2 8 4 29 16 N 1023,3 22 0 0,0
22.10.2018 20:00:00 15,1 10,1 9,3 18,4 20,2 4 2 7 4 NW 1022,5 11 0 0,0
22.10.2018 19:00:00 17,4 10,3 11,3 18,5 20,2 2 1 8 5 W 1021,7 12 27 0,0
22.10.2018 18:00:00 20,2 11,4 18,8 18,5 20,2 4 2 15 8 SE 1021,0 30 60 0,0
22.10.2018 17:00:00 20,1 11,0 21,6 18,4 20,2 10 5 14 7 SSW 1020,9 20 60 0,0
22.10.2018 16:00:00 20,4 9,9 23,5 18,1 20,2 11 6 20 11 SSW 1020,5 20 60 0,0
22.10.2018 15:00:00 20,3 9,8 24,0 17,8 20,2 14 8 21 11 SW 1021,0 20 60 0,0
22.10.2018 14:00:00 22,0 8,1 26,2 17,4 20,2 7 4 11 6 S 1021,4 20 60 0,0
22.10.2018 13:00:00 20,5 7,1 24,2 17,2 20,2 2 1 15 8 WNW 1021,9 20 60 0,0
22.10.2018 12:00:00 18,8 7,2 20,3 17,0 20,2 11 6 20 11 N 1022,2 24 60 0,0
22.10.2018 11:00:00 16,9 7,8 19,1 17,0 20,2 15 8 21 11 NNE 1021,9 20 60 0,0
22.10.2018 10:00:00 15,0 7,3 13,1 17,0 20,3 9 5 16 9 N 1022,0 20 35 0,0
22.10.2018 09:00:00 13,1 7,5 12,6 17,0 20,3 8 4 15 8 N 1021,8 20 0 0,0
22.10.2018 08:00:00 14,7 8,0 12,5 17,0 20,3 5 3 16 8 N 1020,8 20 0 0,0
22.10.2018 07:00:00 14,9 7,7 13,0 17,1 20,3 6 3 8 4 NW 1020,8 22 0 0,0
22.10.2018 06:00:00 14,6 8,5 12,3 17,1 20,3 4 2 13 7 N 1020,5 23 0 0,0
22.10.2018 05:00:00 13,9 7,9 12,2 17,2 20,3 11 6 16 8 N 1020,2 20 0 0,0
22.10.2018 04:00:00 13,9 8,1 12,2 17,3 20,3 10 5 16 8 N 1020,3 20 0 0,0
22.10.2018 03:00:00 13,8 7,6 11,6 17,5 20,3 10 5 23 12 N 1019,8 22 0 0,0
22.10.2018 02:00:00 15,3 6,3 9,7 17,7 20,3 12 6 26 14 N 1019,3 27 0 0,0
22.10.2018 01:00:00 14,6 6,9 9,5 17,9 20,3 19 10 26 14 NNE 1018,4 31 0 0,0
22.10.2018 00:00:00 15,9 7,6 8,5 18,1 20,3 9 5 12 6 NNW 1017,8 25 0 0,0
21.10.2018 23:00:00 13,7 10,9 9,6 18,3 20,3 10 5 16 9 ENE 1017,2 16 0 0,0
21.10.2018 22:00:00 15,9 11,7 10,5 18,6 20,4 0 0 11 6 N 1016,6 16 0 0,0
21.10.2018 21:00:00 17,7 12,2 13,1 18,7 20,3 7 4 18 10 WNW 1016,5 17 0 0,0
21.10.2018 20:00:00 17,6 14,1 13,5 18,8 20,3 15 8 18 10 NNE 1016,2 16 0 0,0
21.10.2018 19:00:00 19,7 15,6 14,5 18,9 20,4 3 2 8 4 NNW 1015,8 22 29 0,0
21.10.2018 18:00:00 21,3 17,1 20,9 18,8 20,3 5 3 10 6 ESE 1015,7 20 60 0,0
21.10.2018 17:00:00 21,4 16,1 23,5 18,7 20,3 7 4 12 7 SSE 1016,3 20 60 0,0
21.10.2018 16:00:00 21,4 14,5 25,5 18,4 20,4 7 4 16 9 S 1017,1 20 60 0,0
21.10.2018 15:00:00 21,5 13,4 25,9 18,0 20,4 12 7 20 11 SSW 1018,0 19 60 0,0
21.10.2018 14:00:00 21,8 12,1 26,2 17,5 20,3 13 7 23 12 SSW 1019,1 20 60 0,0
21.10.2018 13:00:00 22,3 10,8 26,0 17,2 20,3 6 3 21 11 NW 1020,1 28 60 0,0
21.10.2018 12:00:00 21,0 10,5 21,3 17,0 20,4 13 7 31 17 N 1020,9 14 60 0,0
21.10.2018 11:00:00 19,3 10,6 19,9 16,9 20,4 19 10 30 16 N 1021,7 8 60 0,0
21.10.2018 10:00:00 16,8 11,3 14,2 16,9 20,4 13 7 19 10 N 1022,1 16 60 0,0
21.10.2018 09:00:00 13,0 11,2 6,8 16,9 20,4 2 1 5 3 NE 1022,1 14 33 0,0
21.10.2018 08:00:00 12,0 10,2 6,6 17,1 20,4 2 1 6 3 W 1021,5 10 0 0,0
21.10.2018 07:00:00 12,0 10,4 7,0 17,3 20,4 2 1 9 5 N 1022,0 9 0 0,0
21.10.2018 06:00:00 11,8 9,7 9,2 17,4 20,4 4 2 12 7 NNE 1022,2 11 0 0,0
21.10.2018 05:00:00 13,7 11,0 9,4 17,5 20,4 11 6 12 7 NW 1022,3 9 0 0,0
21.10.2018 04:00:00 13,9 10,5 8,5 17,7 20,4 5 3 14 7 WNW 1022,6 17 0 0,0
21.10.2018 03:00:00 14,5 10,5 9,0 17,9 20,4 10 5 16 9 NNW 1023,0 17 0 0,0
21.10.2018 02:00:00 12,5 10,6 8,4 18,1 20,4 7 4 9 5 NNW 1023,2 11 0 0,0
21.10.2018 01:00:00 12,6 10,0 8,6 18,3 20,4 3 2 7 4 W 1023,2 11 0 0,0
21.10.2018 00:00:00 13,7 10,5 10,2 18,5 20,4 5 3 8 4 N 1023,6 14 0 0,0
20.10.2018 23:00:00 14,8 10,2 11,0 18,7 20,4 4 2 6 3 WNW 1023,5 12 0 0,0
20.10.2018 22:00:00 17,7 11,3 11,8 18,9 20,4 4 2 11 6 NW 1023,4 12 0 0,0
20.10.2018 21:00:00 17,5 12,4 13,3 19,1 20,4 10 6 13 7 N 1023,3 11 0 0,0
20.10.2018 20:00:00 18,0 13,5 13,0 19,2 20,4 4 2 9 5 NNW 1023,1 10 0 0,0
20.10.2018 19:00:00 20,1 13,8 16,0 19,3 20,4 7 4 8 4 WNW 1022,5 12 0 0,0
20.10.2018 18:00:00 21,8 13,9 20,7 19,2 20,4 4 2 6 4 SW 1022,1 18 15 0,0
20.10.2018 17:00:00 22,3 13,9 22,6 19,0 20,4 4 2 12 6 SSW 1022,0 19 40 0,0
20.10.2018 16:00:00 23,1 14,4 23,7 18,8 20,4 7 4 11 6 S 1022,1 19 34 0,0
20.10.2018 15:00:00 22,7 13,7 23,0 18,6 20,4 7 4 20 11 NE 1022,3 20 0 0,0
20.10.2018 14:00:00 21,8 13,2 22,6 18,2 20,4 16 9 29 16 NNE 1023,0 20 41 0,0
20.10.2018 13:00:00 22,4 12,9 24,5 18,0 20,4 21 11 32 17 NE 1023,4 20 60 0,0
20.10.2018 12:00:00 21,2 13,1 19,7 17,8 20,4 22 12 36 20 NNE 1023,5 19 33 0,0
20.10.2018 11:00:00 18,6 12,8 17,4 17,7 20,4 16 9 22 12 NNE 1023,7 18 1 0,0
20.10.2018 10:00:00 17,3 12,8 14,3 17,8 20,5 11 6 19 10 N 1023,2 19 60 0,0
20.10.2018 09:00:00 14,7 12,4 11,9 17,8 20,4 13 7 19 10 N 1022,4 15 34 0,0
20.10.2018 08:00:00 13,5 11,5 11,2 18,0 20,5 11 6 16 8 N 1021,6 15 0 0,0
20.10.2018 07:00:00 13,7 12,1 11,0 18,1 20,5 11 6 19 10 N 1021,4 14 0 0,0
20.10.2018 06:00:00 14,0 11,7 11,9 18,3 20,5 10 5 14 8 N 1020,9 14 0 0,0
20.10.2018 05:00:00 14,4 12,8 12,4 18,4 20,5 12 6 16 8 N 1020,3 13 0 0,0
20.10.2018 04:00:00 14,5 13,0 11,0 18,5 20,5 7 4 11 6 N 1020,3 9 0 0,0
20.10.2018 03:00:00 14,9 13,1 11,1 18,7 20,5 3 2 4 2 S 1020,6 9 0 0,0
20.10.2018 02:00:00 16,4 14,1 12,6 18,8 20,5 0 0 6 3 N 1020,4 2,1 0 0,0
20.10.2018 01:00:00 16,0 13,7 13,5 18,9 20,5 4 2 10 5 N 1020,3 13 0 0,0
20.10.2018 00:00:00 16,2 14,0 12,6 19,1 20,5 4 2 11 6 N 1020,1 12 0 0,0
19.10.2018 23:00:00 16,6 14,6 13,1 19,3 20,5 6 3 20 11 NE 1019,9 11 0 0,0
19.10.2018 22:00:00 17,5 13,8 13,4 19,4 20,5 5 3 10 5 NNW 1019,3 13 0 0,0
19.10.2018 21:00:00 18,6 14,5 14,9 19,6 20,5 6 4 9 5 N 1018,7 9 0 0,0
19.10.2018 20:00:00 20,0 13,9 14,8 19,7 20,5 4 2 5 3 WNW 1018,4 25 0 0,0
19.10.2018 19:00:00 21,4 14,3 16,5 19,7 20,5 4 2 5 3 SW 1017,8 30 0 0,0
19.10.2018 18:00:00 23,6 14,3 23,5 19,7 20,5 2 1 7 4 S 1017,4 19 13 0,0
19.10.2018 17:00:00 22,9 15,2 23,3 19,5 20,5 5 3 9 5 SSE 1017,4 20 32 0,0
19.10.2018 16:00:00 23,5 14,2 26,0 19,2 20,5 7 4 10 5 SE 1017,4 19 55 0,0
19.10.2018 15:00:00 24,1 14,2 25,2 18,9 20,5 6 4 13 7 E 1017,5 20 21 0,0
19.10.2018 14:00:00 23,4 13,8 25,0 18,4 20,5 9 5 19 10 NE 1017,8 20 49 0,0
19.10.2018 13:00:00 21,7 13,1 24,0 18,1 20,5 11 6 20 11 NNE 1018,3 20 27 0,0
19.10.2018 12:00:00 21,0 12,4 24,2 17,8 20,5 12 6 18 10 NNE 1018,3 19 60 0,0
19.10.2018 11:00:00 19,7 12,2 19,3 17,7 20,5 11 6 16 9 NNE 1018,5 31 60 0,0
19.10.2018 10:00:00 17,3 11,6 15,3 17,8 20,5 6 3 18 10 NE 1018,0 20 1 0,0
19.10.2018 09:00:00 15,4 11,0 12,5 17,8 20,5 10 5 15 8 NNE 1017,1 28 9 0,0
19.10.2018 08:00:00 14,6 10,6 13,3 18,0 20,5 5 3 15 8 NNE 1016,5 26 0 0,0
19.10.2018 07:00:00 15,5 10,9 13,9 18,1 20,5 12 6 19 10 N 1016,0 26 0 0,0
19.10.2018 06:00:00 15,3 11,3 13,3 18,2 20,5 8 5 13 7 NNE 1016,1 24 0 0,0
19.10.2018 05:00:00 15,4 12,3 11,3 18,4 20,5 5 3 11 6 N 1016,1 23 0 0,0
19.10.2018 04:00:00 14,6 11,6 12,1 18,5 20,5 10 5 16 9 NE 1015,7 20 0 0,0
19.10.2018 03:00:00 15,9 12,6 13,7 18,7 20,5 12 6 16 8 NNE 1015,6 19 0 0,0
19.10.2018 02:00:00 15,3 12,8 13,7 18,8 20,5 9 5 18 10 NNE 1015,8 18 0 0,0
19.10.2018 01:00:00 16,0 13,3 13,7 18,9 20,5 14 7 18 10 N 1015,5 17 0 0,0
19.10.2018 00:00:00 16,6 12,9 12,7 19,1 20,5 9 5 11 6 N 1015,6 17 0 0,0
18.10.2018 23:00:00 16,0 12,7 12,1 19,3 20,6 6 4 8 4 N 1015,1 18 0 0,0
18.10.2018 22:00:00 16,7 13,0 14,3 19,5 20,5 8 5 16 9 N 1014,6 19 0 0,0
18.10.2018 21:00:00 18,2 13,5 14,7 19,6 20,5 9 5 15 8 N 1014,2 18 0 0,0
18.10.2018 20:00:00 19,0 13,8 15,7 19,8 20,6 6 3 15 8 N 1013,8 20 0 0,0
18.10.2018 19:00:00 20,4 14,1 18,1 19,8 20,6 7 4 14 7 NNE 1013,2 26 19 0,0
18.10.2018 18:00:00 22,9 14,7 22,6 19,7 20,6 10 5 17 9 N 1013,0 32 60 0,0
18.10.2018 17:00:00 23,5 13,4 24,1 19,5 20,6 13 7 16 9 NNE 1013,1 19 60 0,0
18.10.2018 16:00:00 23,6 13,2 24,6 19,3 20,6 13 7 18 10 ENE 1013,5 20 24 0,0
18.10.2018 15:00:00 23,3 12,9 24,1 19,1 20,6 14 8 21 11 NE 1013,7 40 3 0,0
18.10.2018 14:00:00 22,6 13,6 23,8 18,8 20,6 12 6 21 11 NE 1014,0 38 20 0,0
18.10.2018 13:00:00 22,2 15,1 22,3 18,7 20,6 11 6 22 12 NNE 1014,5 29 3 0,0
18.10.2018 12:00:00 20,1 14,0 18,7 18,6 20,6 11 6 19 10 NNE 1014,6 20 0 0,0
18.10.2018 11:00:00 18,8 13,6 18,4 18,5 20,6 9 5 16 9 NNE 1014,9 19 0 0,0
18.10.2018 10:00:00 18,0 13,7 17,0 18,5 20,6 11 6 16 9 NNE 1014,7 18 0 0,0
18.10.2018 09:00:00 17,2 13,5 16,2 18,6 20,6 8 4 15 8 NNE 1014,4 18 0 0,0
18.10.2018 08:00:00 17,0 13,7 16,0 18,6 20,6 10 5 21 12 N 1014,1 19 0 0,0
18.10.2018 07:00:00 17,1 13,8 15,6 18,7 20,6 16 9 31 17 NNE 1013,9 19 0 0,0
18.10.2018 06:00:00 17,0 14,3 15,7 18,7 20,6 13 7 21 11 N 1013,8 17 0 0,0
18.10.2018 05:00:00 16,7 15,1 15,9 18,8 20,6 12 6 16 9 N 1013,7 14 0 0,0
18.10.2018 04:00:00 16,8 15,1 16,0 18,8 20,6 9 5 15 8 ENE 1014,6 9 0 0,4
18.10.2018 03:00:00 16,8 15,0 16,1 18,9 20,6 4 2 9 5 NE 1014,6 16 0 0,0
18.10.2018 02:00:00 16,9 15,1 16,1 19,0 20,7 4 2 9 5 NNE 1014,8 16 0 0,0
18.10.2018 01:00:00 17,2 15,2 16,2 19,0 20,7 4 2 9 5 NNE 1015,1 11 0 0,0
18.10.2018 00:00:00 17,6 15,6 16,6 19,0 20,6 9 5 10 6 NW 1015,1 10 0 0,0
17.10.2018 23:00:00 17,9 15,7 16,5 19,1 20,7 6 3 9 5 NNW 1015,4 11 0 0,0
17.10.2018 22:00:00 17,9 15,3 16,7 19,2 20,7 3 2 26 14 E 1015,3 11 0 0,0
17.10.2018 21:00:00 18,7 14,8 17,1 19,2 20,7 6 3 10 5 WNW 1014,9 17 0 0,0
17.10.2018 20:00:00 18,8 14,7 17,7 19,3 20,7 9 5 11 6 NNW 1014,8 8 0 0,0
17.10.2018 19:00:00 19,8 14,6 18,4 19,3 20,7 4 2 8 4 NNW 1014,5 11 0 0,0
17.10.2018 18:00:00 20,6 13,8 20,0 19,2 20,7 3 2 10 5 N 1014,4 6 0 0,0
17.10.2018 17:00:00 21,2 13,4 20,6 19,1 20,7 4 2 14 7 N 1014,7 14 0 0,0
17.10.2018 16:00:00 21,9 12,2 22,3 18,9 20,7 7 4 15 8 NNE 1014,9 35 0 0,0
17.10.2018 15:00:00 21,6 13,0 23,3 18,6 20,7 9 5 15 8 N 1015,2 41 4 0,0
17.10.2018 14:00:00 20,3 14,0 20,2 18,4 20,7 7 4 14 8 NNW 1016,0 41 6 0,0
17.10.2018 13:00:00 18,4 14,3 18,3 18,2 20,7 10 5 13 7 N 1016,9 16 0 0,0
17.10.2018 12:00:00 17,1 13,4 15,9 18,1 20,7 9 5 12 7 NW 1017,4 20 0 0,0
17.10.2018 11:00:00 15,9 13,2 15,2 18,1 20,7 3 2 10 5 ENE 1017,8 20 0 0,2
17.10.2018 10:00:00 15,7 13,5 15,0 18,1 20,7 7 4 13 7 N 1017,6 18 0 0,0
17.10.2018 09:00:00 15,2 13,7 14,4 18,2 20,7 4 2 10 5 N 1017,6 11 0 0,0
17.10.2018 08:00:00 14,9 13,6 12,6 18,3 20,8 9 5 12 7 NE 1017,5 9 0 0,0
17.10.2018 07:00:00 15,0 13,4 13,2 18,3 20,7 0 0 10 6 N 1017,4 7 0 0,0

tt = Température de l'air
td = dewpoint
tt 5cm = Température de l'air 5cm
tt -20cm = Température de l'air -20cm
tt -100cm = Température de l'air -100cm
ff = Vitesse du vent
fx = gusts
dd = Direction du vent
ppp = reduced air pressure
vv = visibility
sd = Ensoleillement
rr = Quantités de précipitations

stations d'obs. à proximité